Simultaneous Nadir Overpasses (SNOs) Predictions

Prediction of SNOs between AQUA and NPP Satellite Orbit:

Table of predicted SNOs for the next 14.0 days since TLE Epoch: 1/11/2019
Index Date (AQUA) Time (AQUA) Lat,Lon (AQUA) SZA (AQUA ) Date (NPP) Time (NPP) Lat,Lon (NPP) SZA (NPP ) Distance(km) Time Diff (sec)
1 01/14/2019 14:05:00 76.43,-150.81 117.95 01/14/2019 14:04:48 76.44,-150.71 117.93 2.93 12
2 01/14/2019 14:54:11 -77.19, 19.53 62.93 01/14/2019 14:55:17 -77.19, 19.55 62.99 0.63 66
3 01/17/2019 05:32:24 -75.41, 154.30 61.35 01/17/2019 05:31:21 -75.41, 154.27 61.28 0.99 63
4 01/17/2019 06:21:23 76.72, -33.95 117.18 01/17/2019 06:21:36 76.73, -33.86 117.15 2.62 13
5 01/19/2019 21:48:46 -75.76, -88.82 62.22 01/19/2019 21:48:08 -75.75, -88.88 62.17 1.80 38
6 01/19/2019 22:37:45 77.04, 83.11 116.32 01/19/2019 22:38:23 77.05, 83.21 116.26 2.68 38
7 01/22/2019 14:05:08 -76.09, 28.10 63.13 01/22/2019 14:04:55 -76.08, 28.02 63.10 2.28 13
8 01/22/2019 14:54:15 76.99,-161.22 115.84 01/22/2019 14:55:19 76.98,-161.33 115.81 2.92 64
9 01/25/2019 05:32:15 75.76, -24.66 116.67 01/25/2019 05:31:09 75.77, -24.56 116.70 2.80 66




NCC Satellite Simultaneous Nadir Overpasses (SNOs) Prediction Service
